Location: Gleizolles
(44.4833°N, 6.7667°E)
Time: 08:38:49
(UTC+00:00)

X-37B - Pass Details

Date: 11 December 2021
Orbit: 334 x 337 km, 45.0° (Epoch: 11 January)

Event Time Altitude Azimuth Distance (km) Brightness Sun altitude
Rises 18:34:12 0° 276° (W) 2,104 5.5 -27.8°
Reaches altitude 10° 18:36:13 10° 278° (W) 1,267 4.1 -28.1°
Enters shadow 18:36:18 11° 278° (W) 1,231 4.0 -28.1°
